Regional Weather Roundup
Issued by NWS

Home | Current Version | Previous Version | Text Only | Print | Product List | Glossary On
Versions: 1 2 3 4 5 6 7 8 9 10 11 12 13 14 15 16 17 18 19 20 21 22 23 24 25 26 27 28 29 30 31 32 33 34 35 36 37 38 39 40 41 42 43 44 45 46 47 48 49 50
000
ASUS44 KJAN 251510
RWRMS

MISSISSIPPI HOURLY WEATHER ROUNDUP
NATIONAL WEATHER SERVICE JACKSON MS
900 AM CST THU DEC 25 2014

NOTE: "FAIR: INDICATES FEW OR NO CLOUDS BELOW 12,000 FEET WITH NO
SIGNIFICANT WEATHER AND/OR OBSTRUCTIONS TO VISIBILITY.

MSZ001>002-007>008-010>013-018>021-025>028-034>036-251600-
NORTHWEST MISSISSIPPI

CITY           SKY/WX    TMP DP  RH WIND       PRES   REMARKS
CLARKSDALE     FAIR      41  37  87 S8        30.22R
CLEVELAND      FAIR      41  37  87 S9        30.21S
GREENWOOD      SUNNY     42  37  82 S8        30.24R
GREENVILLE     SUNNY     42  36  79 S10       30.20F
GRENADA        FAIR      37  37 100 SW3       30.25R
OLIVE BRANCH   SUNNY     37  37 100 S9        30.20R WCI  31
OXFORD         FAIR      37  32  81 SW5       30.24R WCI  34
TUNICA         SUNNY     41  36  81 S9        30.22R
$$

MSZ003>006-009-014>017-022>024-029>033-037>039-251600-
NORTHEAST MISSISSIPPI

CITY           SKY/WX    TMP DP  RH WIND       PRES   REMARKS
COLUMBUS AFB   SUNNY     40  38  94 SW3       30.26R
CORINTH        FAIR      43  37  81 S7        30.21R
GOLDN TRIANGLE SUNNY     39  36  87 W3        30.24R
STARKVILLE     FAIR      37  37 100 CALM      30.25R
TUPELO         SUNNY     41  34  76 W5        30.23R
$$

MSZ040-058-251600-
CENTRAL MISSISSIPPI

CITY           SKY/WX    TMP DP  RH WIND       PRES   REMARKS
JACKSON INTL   SUNNY     41  36  82 S5        30.26R
JACKSON HAWKNS SUNNY     41  36  82 VRB3      30.26R
MERIDIAN KEY   SUNNY     38  37  97 S3        30.29R
MERIDIAN NAS   SUNNY     40  36  86 W3        30.29R
RAYMOND        FAIR      41  36  81 MISG      30.26S
VICKSBURG      SUNNY     42  36  79 S8        30.24S
$$

MSZ059>079-251600-
SOUTH MISSISSIPPI

CITY           SKY/WX    TMP DP  RH WIND       PRES   REMARKS
HATTIESBURG    SUNNY     44  38  79 VRB3      30.30R
MCCOMB         SUNNY     40  37  89 CALM      30.26R
NATCHEZ        SUNNY     43  37  81 SE6       30.24S
PINE BELT      SUNNY     39  36  87 W6        30.28S WCI  35
$$

MSZ080>082-251600-
COASTAL MISSISSIPPI

CITY           SKY/WX    TMP DP  RH WIND       PRES   REMARKS
BILOXI         SUNNY     46  38  75 N6        30.29R
PASCAGOULA     SUNNY     45  39  79 CALM      30.30R
GULFPORT       SUNNY     44  38  79 NW3       30.29R
$$


USA.gov is the U.S. government's official web portal to all federal, state and local government web resources and services.